Location: Haieshausen
(51.8387°N, 9.9720°E)
Time: 04:31:00
(UTC+00:00)

Meteor 1-25 Rocket - Pass Details

Date: 14 July 2020
Orbit: 837 x 891 km, 81.2° (Epoch: 10 August)

Event Time Altitude Azimuth Distance (km) Brightness Sun altitude
Exits shadow 00:47:43 21° 207° (SSW) 1,811 5.3 -14.4°
Maximum altitude 00:51:30 67° 285° (WNW) 913 4.3 -14.2°
Drops below altitude 10° 00:57:04 10° 9° (N) 2,467 8.0 -13.9°
Sets 00:59:31 0° 12° (NNE) 3,404 9.2 -13.7°
